Weather History for Crestview, FL

Change the Weather History Date:

Friday, November 9, 2012

  Actual Average Record
Temperature  
Mean Temperature 52 °F -  
Max Temperature 72 °F 71 °F 82 °F (1950)
Min Temperature 32 °F 48 °F 22 °F (1976)
Degree Days  
Heating Degree Days 13    
Growing Degree Days 2 (Base 50)    
Moisture  
Dew Point 39 °F    
Average Humidity 71    
Maximum Humidity 93    
Minimum Humidity 28    
Precipitation  
Precipitation 0.00 in - - ()
Sea Level Pressure  
Sea Level Pressure 30.26 in    
Wind  
Wind Speed 0 mph (NE)    
Max Wind Speed 4 mph    
Max Gust Speed -    
Visibility 8 miles    
Events      
Averages and records for this station are not official NWS values.
T = Trace of Precipitation, MM = Missing Value Source: NWS Daily Summary

Daily Weather History Graph

Daily Weather History Graph

Search for Another Location

Airport:

Trip Planner

Search our weather history database for the weather conditions in past years. The results will help you decide how hot, cold, wet, or windy it might be!

Date:

Astronomy

Nov. 09, 2012 Rise Set
Actual Time 6:07 AM CST 4:51 PM CST
Civil Twilight 5:42 AM CST 5:16 PM CST
Nautical Twilight 5:13 AM CST 5:45 PM CST
Astronomical Twilight 4:45 AM CST 6:14 PM CST
Moon 1:24 AM CST (11/9) 1:48 PM CST (11/9)
Length of Visible Light 11h 34m
Length of Day
10h 43m
Waning Crescent, 23% of the Moon is Illuminated
Nov 9
Waning Crescent
Nov 13
New
Nov 20
First Quarter
Nov 28
Full
Dec 6
Last Quarter

Hourly Weather History & Observations

Time (CST) Temp. Dew Point Humidity Pressure Visibility Wind Dir Wind Speed Gust Speed Precip Events Conditions
12:53 AM 36.0 °F 34.0 °F 93% 30.23 in 5.0 mi Calm Calm - N/A   Clear
1:53 AM 35.1 °F 33.1 °F 92% 30.23 in 5.0 mi Calm Calm - N/A   Clear
2:53 AM 34.0 °F 32.0 °F 92% 30.23 in 6.0 mi Calm Calm - N/A   Clear
3:53 AM 34.0 °F 30.9 °F 89% 30.24 in 6.0 mi Calm Calm - N/A   Clear
4:53 AM 32.0 °F 30.0 °F 92% 30.26 in 6.0 mi Calm Calm - N/A   Clear
5:53 AM 32.0 °F 30.0 °F 92% 30.27 in 5.0 mi Calm Calm - N/A   Clear
6:53 AM 35.1 °F 32.0 °F 89% 30.30 in 6.0 mi Calm Calm - N/A   Clear
7:53 AM 46.0 °F 42.1 °F 86% 30.31 in 8.0 mi Calm Calm - N/A   Clear
8:53 AM 55.9 °F 44.1 °F 64% 30.33 in 10.0 mi Calm Calm - N/A   Clear
9:53 AM 64.0 °F 42.1 °F 45% 30.32 in 10.0 mi NE 3.5 mph - N/A   Clear
10:53 AM 66.0 °F 39.0 °F 37% 30.31 in 10.0 mi Calm Calm - N/A   Clear
11:53 AM 68.0 °F 39.0 °F 35% 30.28 in 10.0 mi Calm Calm - N/A   Clear
12:53 PM 70.0 °F 39.9 °F 33% 30.25 in 10.0 mi Calm Calm - N/A   Clear
1:53 PM 70.0 °F 39.0 °F 32% 30.22 in 10.0 mi Calm Calm - N/A   Clear
2:53 PM 72.0 °F 37.0 °F 28% 30.22 in 10.0 mi Calm Calm - N/A   Clear
3:53 PM 71.1 °F 37.0 °F 29% 30.22 in 10.0 mi Calm Calm - N/A   Clear
4:53 PM 61.0 °F 45.0 °F 56% 30.23 in 10.0 mi Calm Calm - N/A   Clear
5:53 PM 55.0 °F 46.9 °F 74% 30.25 in 10.0 mi Calm Calm - N/A   Clear
6:53 PM 51.1 °F 46.9 °F 86% 30.26 in 10.0 mi Calm Calm - N/A   Clear
7:53 PM 46.9 °F 45.0 °F 93% 30.26 in 10.0 mi Calm Calm - N/A   Clear
8:53 PM 46.0 °F 43.0 °F 89% 30.27 in 9.0 mi Calm Calm - N/A   Clear
9:53 PM 43.0 °F 41.0 °F 93% 30.27 in 7.0 mi Calm Calm - N/A   Clear
10:53 PM 42.1 °F 39.9 °F 92% 30.27 in 6.0 mi Calm Calm - N/A   Clear
11:53 PM 39.9 °F 37.9 °F 93% 30.27 in 5.0 mi Calm Calm - N/A   Clear